Regional Weather Roundup
Issued by NWS Newport/Morehead, NC

Current Version | Previous Version | Graphics & Text | Print | Product List | Glossary On
Versions: 1 2 3 4 5 6 7 8 9 10 11 12 13 14 15 16 17 18 19 20 21 22 23 24 25 26 27 28 29 30 31 32 33 34 35 36 37 38 39 40 41 42 43 44 45 46 47 48 49 50
000 ASUS42 KMHX 101013 RWRMHX WEATHER ROUNDUP FOR EASTERN NORTH CAROLINA NATIONAL WEATHER SERVICE NEWPORT/MOREHEAD CITY NC 500 AM EST WED FEB 10 2016 NOTE: "FAIR" INDICATES FEW OR NO CLOUDS BELOW 12,000 FEET WITH NO SIGNIFICANT WEATHER AND/OR OBSTRUCTIONS TO VISIBILITY NCZ015>017-031-032-045>047-102-103-101100- NORTH COAST CITY SKY/WX TMP DP RH WIND PRES REMARKS EDENTON CLEAR 32 17 55 W9G17 29.82R ELIZABETH CITY CLEAR 29 16 58 W10 29.80R WCI 20 KITTY HAWK SUNNY 33 19 58 W12G23 29.77R MANTEO CLEAR 32 20 61 W15 29.79R $$ NCZ045>047-081-094-103-104-101100- CENTRAL COAST CITY SKY/WX TMP DP RH WIND PRES REMARKS FRISCO CLOUDY 36 20 52 W17G29 29.80R SWANQUARTER N/A N/A N/A N/A W12G25 29.79S $$ NCZ095-097-098-100-101-101100- SOUTHERN COAST CITY SKY/WX TMP DP RH WIND PRES REMARKS BEAUFORT MOCLDY 33 16 49 W20 29.87R CEDAR ISLAND N/A 32 N/A N/A W18G28 29.88R JACKSONVILLE CLEAR 31 14 49 W12 29.89R PINEY ISLAND MOSUNNY N/A N/A N/A W22G32 29.85R WILMINGTON CLOUDY 35 16 45 W12 29.91R $$ NCZ011>013-027>030-043-044-078>080-089-090>093-098-101100- COASTAL PLAIN CITY SKY/WX TMP DP RH WIND PRES REMARKS AHOSKIE CLEAR 26 15 63 CALM 29.82R CLINTON CLEAR 29 19 64 W5 29.90R ELIZABETHTOWN CLEAR 30 16 54 W3 29.91R GOLDSBORO CLEAR 27 18 69 SW9 29.86R GREENVILLE CLEAR 30 18 59 W6 29.87R HAVELOCK PTCLDY 31 15 52 W14 29.88R KENANSVILLE CLEAR 28 15 58 CALM 29.90R KINSTON CLEAR 29 16 59 SW7 29.88R NEW BERN CLEAR 30 15 53 W7 29.88R RICHLANDS CLEAR 30 12 47 SW6 29.89R ROCKY MOUNT CLEAR 28 15 58 SW9 29.85R WASHINGTON CLEAR 29 16 58 W9 29.85R WHITEVILLE CLOUDY 34 17 49 W7 29.92R $$ AMZ130-135-150-152-154-156-158-170-250-252-270-ANZ085-086-088-633-658-670-101100- MARINE OBSERVATIONS STATION/POSITION TIME TEMP WIND PRES WAVE SWELL AIR SEA DIR/SP/G HT/PER HT/PER (UTC) (F) (DEG/KT/KT) (MB) (FT/S) (FT/S) CHESAPEAKE LIGHT 1000 32 270/ 20/ 23 1007.7 64 E VA BEACH 0950 38 50 270/ 21/ 27 1006.1 8/13 5/13 DUCK 0900 34 290/ 18/ 22 1007.4 2 E DUCK 0911 44 N/A 5/13 5/13 OREGON INLET 0900 35 46 270/ 14/ 23 1008.2 13E OREGON INLT 1000 47 N/A 7/13 5/13 HATTERAS CG 0900 39 51 270/ 27/ 32 1007.6 DIAMOND BUOY 0950 43 73 290/ 27/ 35 1008.0 9/14 5/14 CAPE LOOKOUT NOT AVBL BEAUFORT LAB 0900 35 46 300/ 10/ 16 1009.4 30 SE NEW RVR IN 0908 41 60 1010.3 30 SE NEW RVR IN 0925 60 N/A 8/ 9 3/14 27 SE WRIGHTSVLE 0908 40 60 360/ 17/ 27 1010.0 5 SE WRIGHTSVLE 0908 39 51 300/ 17/ 23 1011.9 225 S CAPE HAT 0950 54 68 290/ 29/ 39 N/A 16/10 13/10 41 SE CHARLESTON 0950 42 64 270/ 27/ 35 1013.9 9/ 7 2/15 $$

USA.gov is the U.S. government's official web portal to all federal, state and local government web resources and services.